CW8822 Caguas PR US current weather conditions

sailwx.info

Wind from 084 at 0 knots gusting 6

Air temperature 25.0° C
Dewpoint 22.9° C

Last reported at 2015-Jul-04 10:51 UTC.
Time now 2015-Jul-04 11:51 UTC

Location: N 18°12' W 066°01'.
View on Google Maps.

See reports from other nearby stations

  
Tides and Currents Weather Stations Pressure Air Temp Water Temp Dewpoint Dewpoint Depression Visibility Wind Speed Wind Dir Waves Ship Positions
date/time (UTC)wind fromknots sea level pressurealtimeterstation pressurevisibilityair tempwater tempwave heightnotes
2015-Jul-04 10:51 084 0 gusting 6 25.0
2015-Jul-04 10:36 094 1 gusting 8 25.0
2015-Jul-04 10:21 101 3 gusting 6 25.0
2015-Jul-04 10:06 077 0 gusting 6 24.4
2015-Jul-04 09:50 096 2 gusting 8 25.0
2015-Jul-04 09:35 101 0 gusting 6 25.0
2015-Jul-04 09:20 083 25.0
2015-Jul-04 09:05 067 0 gusting 6 25.0
2015-Jul-04 08:50 076 1 gusting 4 25.0
2015-Jul-04 08:35 098 2 gusting 6 24.4
2015-Jul-04 08:20 086 0 gusting 6 25.0
2015-Jul-04 08:05 084 1 gusting 4 25.0
2015-Jul-04 07:50 084 25.0
2015-Jul-04 07:35 088 0 gusting 5 25.0
2015-Jul-04 07:20 101 0 gusting 6 25.0
2015-Jul-04 07:05 073 0 gusting 6 25.0
2015-Jul-04 06:50 065 0 gusting 6 25.0
2015-Jul-04 06:35 057 2 gusting 7 25.0
2015-Jul-04 06:20 049 2 gusting 6 25.0
2015-Jul-04 06:05 084 1 gusting 5 25.0
2015-Jul-04 05:50 075 0 gusting 3 25.0
2015-Jul-04 05:35 076 1 gusting 4 25.0
2015-Jul-04 05:20 049 0 gusting 2 25.0
2015-Jul-04 05:05 049 25.0
2015-Jul-04 04:50 086 1 gusting 5 25.0
2015-Jul-04 04:35 071 25.0
2015-Jul-04 04:20 061 0 gusting 5 25.0
2015-Jul-04 04:05 060 0 gusting 5 25.0
2015-Jul-04 03:50 111 2 gusting 7 25.0
2015-Jul-04 03:35 088 2 gusting 8 25.0
2015-Jul-04 03:20 086 1 gusting 5 25.0
2015-Jul-04 03:05 076 1 gusting 8 25.0
2015-Jul-04 02:50 085 1 gusting 6 25.0
2015-Jul-04 02:35 089 1 gusting 8 25.0
2015-Jul-04 02:20 086 1 gusting 7 25.6
2015-Jul-04 02:05 096 0 gusting 6 25.6
2015-Jul-04 01:50 068 1 gusting 6 25.6
2015-Jul-04 01:35 097 1 gusting 6 25.6
2015-Jul-04 01:20 059 1 gusting 8 25.6
2015-Jul-04 01:05 078 4 gusting 9 25.6
2015-Jul-04 00:50 067 1 gusting 6 25.6
2015-Jul-04 00:35 123 3 gusting 8 25.6
2015-Jul-04 00:20 071 1 gusting 6 25.6
2015-Jul-04 00:05 088 2 gusting 6 25.6
2015-Jul-03 23:50 049 4 gusting 8 26.1
2015-Jul-03 23:35 056 1 gusting 6 26.1
2015-Jul-03 23:20 085 0 gusting 6 26.1
2015-Jul-03 23:05 056 0 gusting 9 26.1
2015-Jul-03 22:50 147 1 gusting 6 26.7
2015-Jul-03 22:35 092 2 gusting 11 26.7
2015-Jul-03 22:20 103 0 gusting 8 27.2
2015-Jul-03 22:05 062 0 gusting 11 27.2
2015-Jul-03 21:50 072 2 gusting 7 27.8
2015-Jul-03 21:35 053 2 gusting 9 27.2
2015-Jul-03 21:20 115 1 gusting 12 27.8
2015-Jul-03 21:05 087 2 gusting 13 27.8
2015-Jul-03 20:50 137 3 gusting 8 27.8
2015-Jul-03 20:35 073 5 gusting 11 28.3
2015-Jul-03 20:20 130 5 gusting 11 27.8
2015-Jul-03 20:05 055 0 gusting 13 28.3
2015-Jul-03 19:50 073 2 gusting 9 28.9
2015-Jul-03 19:35 078 2 gusting 11 28.9
2015-Jul-03 19:20 097 5 gusting 13 29.4
2015-Jul-03 19:05 144 4 gusting 10 29.4
2015-Jul-03 18:50 041 5 gusting 11 28.9
2015-Jul-03 18:35 081 3 gusting 8 28.3
2015-Jul-03 18:20 059 3 gusting 8 28.9
2015-Jul-03 18:05 113 4 gusting 14 28.3
2015-Jul-03 17:50 129 5 gusting 14 28.3
2015-Jul-03 17:35 109 4 gusting 10 29.4
2015-Jul-03 17:20 076 3 gusting 12 28.9
2015-Jul-03 17:05 088 2 gusting 9 29.4
2015-Jul-03 16:50 096 4 gusting 11 28.9
2015-Jul-03 16:35 063 1 gusting 8 29.4
2015-Jul-03 16:20 100 0 gusting 10 29.4
2015-Jul-03 16:05 070 6 gusting 15 29.4
2015-Jul-03 15:50 128 5 gusting 14 30.0
2015-Jul-03 15:35 012 3 gusting 11 29.4
2015-Jul-03 15:20 078 5 gusting 13 30.0
2015-Jul-03 15:04 063 2 gusting 13 29.4
2015-Jul-03 14:49 071 2 gusting 14 29.4
2015-Jul-03 14:34 061 1 gusting 14 29.4
2015-Jul-03 14:19 081 1 gusting 13 29.4
2015-Jul-03 14:04 103 1 gusting 13 28.9
2015-Jul-03 13:49 078 6 gusting 13 28.3
2015-Jul-03 13:34 071 0 gusting 11 28.3
2015-Jul-03 13:19 062 3 gusting 8 28.3
2015-Jul-03 13:04 087 3 gusting 12 27.2
2015-Jul-03 12:49 069 4 gusting 9 26.7
2015-Jul-03 12:34 085 0 gusting 6 26.1
2015-Jul-03 12:19 055 2 gusting 6 25.6
2015-Jul-03 12:04 065 25.6
2015-Jul-03 11:49 114 0 gusting 3 25.6
2015-Jul-03 11:34 106 0 gusting 4 25.0
2015-Jul-03 11:19 053 0 gusting 4 25.0
2015-Jul-03 11:04 083 1 gusting 6 24.4
2015-Jul-03 10:49 062 0 gusting 4 24.4
2015-Jul-03 10:34 155 24.4
2015-Jul-03 10:19 165 23.9
2015-Jul-03 10:04 069 23.9
2015-Jul-03 09:49 076 0 gusting 3 23.9
2015-Jul-03 09:34 092 23.9
2015-Jul-03 09:19 092 23.9
2015-Jul-03 09:04 092 23.9
2015-Jul-03 08:49 092 23.9
2015-Jul-03 08:34 092 23.9
2015-Jul-03 08:19 092 23.9
2015-Jul-03 08:04 092 23.9
2015-Jul-03 07:49 092 23.9
2015-Jul-03 07:34 092 23.9
2015-Jul-03 07:19 092 0 gusting 2 24.4
2015-Jul-03 07:04 092 0 gusting 5 24.4
2015-Jul-03 06:48 096 0 gusting 6 24.4
2015-Jul-03 06:33 087 0 gusting 4 24.4
2015-Jul-03 06:18 086 0 gusting 4 24.4
2015-Jul-03 06:03 088 0 gusting 5 24.4
2015-Jul-03 05:48 088 24.4
2015-Jul-03 05:33 088 24.4
2015-Jul-03 05:18 088 24.4
2015-Jul-03 05:03 088 24.4
2015-Jul-03 04:48 088 24.4
2015-Jul-03 04:33 088 24.4
2015-Jul-03 04:18 088 24.4
2015-Jul-03 04:03 088 24.4
2015-Jul-03 03:48 089 1 gusting 5 25.0
2015-Jul-03 03:33 075 2 gusting 7 25.0
2015-Jul-03 03:18 087 0 gusting 5 25.0
2015-Jul-03 03:03 069 25.0
2015-Jul-03 02:48 088 0 gusting 5 25.0
2015-Jul-03 02:33 088 1 gusting 6 25.0
2015-Jul-03 02:18 081 25.0
2015-Jul-03 02:03 081 25.0
2015-Jul-03 01:48 081 0 gusting 4 25.0
2015-Jul-03 01:33 080 25.0
2015-Jul-03 01:18 078 25.0
2015-Jul-03 01:03 071 25.0
2015-Jul-03 00:48 071 0 gusting 2 25.0
2015-Jul-03 00:33 071 25.0
2015-Jul-03 00:18 071 1 gusting 3 25.6
2015-Jul-03 00:03 071 25.6
2015-Jul-02 23:48 075 2 gusting 6 25.6
2015-Jul-02 23:33 112 0 gusting 3 26.1
2015-Jul-02 23:18 125 0 gusting 6 26.1
2015-Jul-02 23:03 108 0 gusting 5 26.7
2015-Jul-02 22:48 148 2 gusting 9 26.7
2015-Jul-02 22:33 060 1 gusting 4 27.2
2015-Jul-02 22:18 059 4 gusting 11 27.2
2015-Jul-02 22:03 076 2 gusting 9 27.8
2015-Jul-02 21:48 061 3 gusting 12 27.8
2015-Jul-02 21:33 060 0 gusting 6 28.3
2015-Jul-02 21:18 073 1 gusting 6 28.3
2015-Jul-02 21:03 036 1 gusting 12 28.3
2015-Jul-02 20:48 005 3 gusting 8 29.4
2015-Jul-02 20:33 084 3 gusting 11 28.9
2015-Jul-02 20:18 193 4 gusting 9 29.4
2015-Jul-02 20:03 142 2 gusting 11 28.9
2015-Jul-02 19:48 055 1 gusting 9 29.4
2015-Jul-02 19:33 080 6 gusting 12 29.4
2015-Jul-02 19:18 080 2 gusting 7 29.4
2015-Jul-02 19:03 019 2 gusting 9 29.4
2015-Jul-02 18:48 094 3 gusting 14 29.4
2015-Jul-02 18:33 098 3 gusting 11 29.4
2015-Jul-02 18:18 145 2 gusting 6 29.4
2015-Jul-02 18:03 067 5 gusting 12 29.4
2015-Jul-02 17:48 066 2 gusting 13 29.4
2015-Jul-02 17:33 094 5 gusting 8 30.0
2015-Jul-02 17:18 067 5 gusting 14 30.6
2015-Jul-02 17:03 049 1 gusting 10 29.4
2015-Jul-02 16:48 107 3 gusting 12 28.9
2015-Jul-02 16:33 355 2 gusting 12 29.4
2015-Jul-02 16:18 092 2 gusting 10 29.4
2015-Jul-02 16:03 069 4 gusting 12 29.4
2015-Jul-02 15:48 112 3 gusting 15 28.9
2015-Jul-02 15:33 095 1 gusting 15 28.3
2015-Jul-02 15:18 168 4 gusting 10 29.4
2015-Jul-02 15:02 177 2 gusting 13 28.9
2015-Jul-02 14:47 040 3 gusting 10 29.4
2015-Jul-02 14:32 215 3 gusting 13 28.3
2015-Jul-02 14:17 087 3 gusting 9 27.8
2015-Jul-02 14:02 063 5 gusting 11 28.3
2015-Jul-02 13:47 053 3 gusting 16 27.8
2015-Jul-02 13:32 090 2 gusting 10 27.2
2015-Jul-02 13:17 122 3 gusting 11 27.2
2015-Jul-02 13:02 096 4 gusting 13 26.7
2015-Jul-02 12:47 054 2 gusting 11 26.7
2015-Jul-02 12:32 038 4 gusting 10 26.7
2015-Jul-02 12:17 068 0 gusting 8 26.7
2015-Jul-02 12:02 091 0 gusting 5 25.6
2015-Jul-02 11:47 082 25.0
2015-Jul-02 11:32 036 25.0
2015-Jul-02 11:17 088 0 gusting 6 24.4